Погода в Уэксфорде

Ирландия     52°20′14″N   6°27′33″W
темп.,
°C
ветер,
м/с
пор.,
м/с
влажн.,
%
обл.,
%
осадки,
мм/ч
давл.,
гПа
погр.,
м
10 мая, пн
пн1001:00+10ю8129459 0.2 988537
04:00+9ю7119548 0.3 988402
07:00+10ю7119380 0.8 988426
10:00+10ююз9129169 0.7 990804
13:00+11ююз12158452 1.0 9901000
16:00+9юз151788100 0.3 9921077
19:00+9юз121779100 0.5 9951250
22:00+9юз101475100 0.0 9991034
11 мая, вт
вт1101:00+9ююз8127552 0.0 1000814
04:00+8ю710805 0.0 1001559
07:00+8ююв59855 0.1 1001524
10:00+10ююв67810 0.3 1002752
13:00+11юв67765 0.5 1002888
16:00+11юв34725 0.1 1002788
19:00+10ююв12729 0.1 1002434
22:00+7ю118363 0.0 100312
12 мая, ср
ср1201:00+7ююз2388100 0.0 100494
04:00+7вюв2292100 0.5 1004143
07:00+8св5794100 1.6 1004341
10:00+9ссв689198 0.1 1005493
13:00+10св678473 0.1 1006521
16:00+11св448255 0.0 1007641
19:00+11с138251 0.4 1007204
22:00+8ссв33895 0.3 100942
13 мая, чт
чт1301:00+7с228769 0.3 100937
04:00+7зсз1188100 0.0 100934
07:00+8ссз228991 0.0 101082
10:00+11ссз12807 0.0 1010395
13:00+12ю227744 1.0 1011613
16:00+12юз337915 1.8 1010548
19:00+12зюз458522 3.6 1011284
22:00+9с349270 1.3 101154
14 мая, пт
пт1401:00+7с349231 1.4 101273
04:00+7ссз339273 0.0 101251
07:00+7ссз349232 0.0 1012104
10:00+10с3484100 0.0 1013343
13:00+11ссв468588 0.2 1014582
16:00+10св579071 0.4 1014512
19:00+10св56855 0.4 1014383
22:00+8с229018 0.0 101543